Airfield :
LOGIN :

Register | Disclaimer

   EN    FR    IT 

 










Legend :    VFR   Marginal VFR   IFR   Intensive IFR   Very Intensive IFR
Visi :
Ceiling :
>= 8 km
>= 3000ft
5 to 8 km
1000 to 3000 ft
1500m to 5 km
500 to 1000 ft
800 to 1500m
200 to 500 ft
< 800m
< 200 ft
Symbols :   Thunderstorms  Fog  Heavy snow  Heavy precipitations  Wind > 20 kt
SIGMETs :     Misc.  Thunderstorms  Icing  Turbulence  Mountain Waves  Volcanic Ashes







- Airport Elevation : 194 ft
- IATA code : IEG


EPZG - Zielona Gora Babimost

CURRENT METAR :
  • 192200Z VRB01KT CAVOK 16/12 Q1022

EXPIRED METARs :
  • 192130Z VRB01KT CAVOK 17/12 Q1022
  • 192100Z 25002KT CAVOK 18/12 Q1022
  • 192030Z 22002KT CAVOK 19/12 Q1022
  • 192000Z 27003KT 250V310 CAVOK 20/12 Q1022
  • 191930Z 30003KT 260V330 CAVOK 22/12 Q1021

TAF TAF EPZG
Valid from the 19 at 21:00 until the 20 at 06:00 UTC


192030Z 1921/2006 27004KT CAVOK
No reported NOTAMs for that airfield.



MET'MAP, your aeronautical weather chart ! - Copyright ORBIFLY December 2007 - Disclaimer

ORBIFLY MET'MAP TEAM :

Programming & Development : Alexandra Zaïnal
Concept & Development : Baudouin d'Aumeries
Co-Development & Prog : Marc-Olivier Méhu
Technical & hardware support : Manuel Goepfert

Contact : metmap@orbifly.com




SOURCES & CREDITS :

   NOAA